| time (UTC) | temp F | wind direction | speed knots | gust knots | rain 1hr in | rain 24hr in | rain mn in | humidity % | barometer mb |
| 20260507114054 | 38 | 0 | 0.0 | 0.0 | 0.00 | 0.00 | 0.00 | 91 | 1015.9 |
| 20260507113551 | 37 | 0 | 0.0 | 0.9 | 0.00 | 0.00 | 0.00 | 91 | 1015.7 |
| 20260507113054 | 36 | 0 | 0.0 | 0.9 | 0.00 | 0.00 | 0.00 | 90 | 1015.7 |
| 20260507112552 | 36 | 0 | 0.0 | 0.9 | 0.00 | 0.00 | 0.00 | 90 | 1015.6 |
| 20260507112052 | 36 | 0 | 0.0 | 0.0 | 0.00 | 0.00 | 0.00 | 90 | 1015.6 |
| 20260507111555 | 36 | 0 | 0.0 | 0.0 | 0.00 | 0.00 | 0.00 | 90 | 1015.4 |
| 20260507111050 | 36 | 0 | 0.0 | 0.0 | 0.00 | 0.00 | 0.00 | 90 | 1015.3 |
| 20260507110551 | 36 | 0 | 0.0 | 0.0 | 0.00 | 0.00 | 0.00 | 90 | 1015.3 |
| 20260507110059 | 36 | 0 | 0.0 | 0.0 | 0.00 | 0.00 | 0.00 | 90 | 1015.3 |
| 20260507105548 | 37 | 0 | 0.0 | 0.0 | 0.00 | 0.00 | 0.00 | 90 | 1015.3 |
| 20260507105048 | 37 | 0 | 0.0 | 0.0 | 0.00 | 0.00 | 0.00 | 90 | 1015.3 |
| 20260507104552 | 37 | 0 | 0.0 | 0.0 | 0.00 | 0.00 | 0.00 | 89 | 1015.2 |
| 20260507104048 | 37 | 0 | 0.0 | 0.0 | 0.00 | 0.00 | 0.00 | 90 | 1015.2 |
| 20260507103549 | 37 | 0 | 0.0 | 0.0 | 0.00 | 0.00 | 0.00 | 89 | 1015.2 |
| 20260507103050 | 37 | 0 | 0.0 | 0.0 | 0.00 | 0.00 | 0.00 | 89 | 1015.2 |
| 20260507102548 | 38 | 0 | 0.0 | 0.0 | 0.00 | 0.00 | 0.00 | 90 | 1015.1 |
| 20260507102048 | 38 | 0 | 0.0 | 0.0 | 0.00 | 0.00 | 0.00 | 90 | 1015.1 |
| 20260507101559 | 38 | 0 | 0.0 | 0.0 | 0.00 | 0.00 | 0.00 | 90 | 1015.1 |
| 20260507101051 | 38 | 0 | 0.0 | 0.0 | 0.00 | 0.00 | 0.00 | 90 | 1015.3 |
| 20260507100552 | 38 | 0 | 0.0 | 0.0 | 0.00 | 0.00 | 0.00 | 90 | 1015.1 |
| 20260507100056 | 38 | 0 | 0.0 | 0.0 | 0.00 | 0.00 | 0.00 | 90 | 1015.0 |
| 20260507095549 | 39 | 0 | 0.0 | 0.0 | 0.00 | 0.01 | 0.00 | 90 | 1015.1 |
| 20260507095051 | 39 | 0 | 0.0 | 0.0 | 0.00 | 0.01 | 0.00 | 90 | 1015.1 |
| 20260507094556 | 39 | 0 | 0.0 | 0.0 | 0.00 | 0.01 | 0.00 | 90 | 1015.0 |
| 20260507094048 | 39 | 0 | 0.0 | 0.0 | 0.00 | 0.01 | 0.00 | 90 | 1015.0 |
| 20260507093549 | 39 | 0 | 0.0 | 0.0 | 0.00 | 0.01 | 0.00 | 89 | 1015.1 |
| 20260507093054 | 39 | 0 | 0.0 | 0.0 | 0.00 | 0.01 | 0.00 | 89 | 1014.9 |
| 20260507092549 | 39 | 0 | 0.0 | 0.0 | 0.00 | 0.01 | 0.00 | 90 | 1015.0 |
| 20260507092052 | 39 | 0 | 0.0 | 0.0 | 0.00 | 0.01 | 0.00 | 89 | 1014.7 |
| 20260507091600 | 40 | 0 | 0.0 | 0.0 | 0.00 | 0.01 | 0.00 | 89 | 1014.8 |
| 20260507091052 | 40 | 0 | 0.0 | 0.0 | 0.00 | 0.01 | 0.00 | 89 | 1014.7 |
| 20260507090552 | 40 | 0 | 0.0 | 0.0 | 0.00 | 0.01 | 0.00 | 89 | 1014.8 |
| 20260507090059 | 40 | 0 | 0.0 | 0.0 | 0.00 | 0.01 | 0.00 | 89 | 1014.8 |
| 20260507085552 | 40 | 0 | 0.0 | 0.0 | 0.00 | 0.06 | 0.00 | 89 | 1014.9 |
| 20260507085053 | 40 | 0 | 0.0 | 0.0 | 0.00 | 0.06 | 0.00 | 89 | 1014.8 |
| 20260507084558 | 41 | 0 | 0.0 | 0.0 | 0.00 | 0.06 | 0.00 | 90 | 1014.8 |
| 20260507084051 | 41 | 0 | 0.0 | 0.0 | 0.00 | 0.06 | 0.00 | 90 | 1014.7 |
| 20260507083552 | 41 | 0 | 0.0 | 0.0 | 0.00 | 0.06 | 0.00 | 89 | 1014.8 |
| 20260507083055 | 41 | 0 | 0.0 | 0.0 | 0.00 | 0.06 | 0.00 | 89 | 1014.8 |
| 20260507082551 | 41 | 0 | 0.0 | 0.0 | 0.00 | 0.06 | 0.00 | 90 | 1014.6 |
| 20260507082048 | 42 | 0 | 0.0 | 0.0 | 0.00 | 0.06 | 0.00 | 89 | 1014.8 |
| 20260507081552 | 42 | 0 | 0.0 | 0.0 | 0.00 | 0.06 | 0.00 | 89 | 1014.7 |
| 20260507081051 | 42 | 0 | 0.0 | 0.0 | 0.00 | 0.06 | 0.00 | 90 | 1014.6 |
| 20260507080551 | 42 | 0 | 0.0 | 0.0 | 0.00 | 0.06 | 0.00 | 90 | 1014.6 |
| 20260507080056 | 42 | 0 | 0.0 | 0.0 | 0.00 | 0.06 | 0.00 | 89 | 1014.7 |
| 20260507075548 | 42 | 0 | 0.0 | 0.0 | 0.00 | 0.13 | 0.00 | 89 | 1014.6 |
| 20260507075054 | 42 | 0 | 0.0 | 0.0 | 0.00 | 0.13 | 0.00 | 90 | 1014.8 |
| 20260507074556 | 43 | 0 | 0.0 | 0.0 | 0.00 | 0.13 | 0.00 | 90 | 1014.7 |
| 20260507074051 | 43 | 0 | 0.0 | 0.0 | 0.00 | 0.13 | 0.00 | 89 | 1014.6 |
| 20260507073555 | 43 | 0 | 0.0 | 0.0 | 0.00 | 0.13 | 0.00 | 89 | 1014.8 |
| 20260507073133 | 43 | 0 | 0.0 | 0.0 | 0.00 | 0.13 | 0.00 | 89 | 1014.9 |
| 20260507072552 | 43 | 0 | 0.0 | 0.0 | 0.00 | 0.13 | 0.00 | 89 | 1014.8 |
| 20260507072048 | 43 | 0 | 0.0 | 0.0 | 0.00 | 0.13 | 0.00 | 89 | 1014.8 |
| 20260507071554 | 43 | 0 | 0.0 | 0.0 | 0.00 | 0.13 | 0.00 | 89 | 1014.7 |
| 20260507071051 | 43 | 0 | 0.0 | 0.0 | 0.00 | 0.13 | 0.00 | 89 | 1014.9 |
| 20260507070552 | 43 | 0 | 0.0 | 0.0 | 0.00 | 0.13 | 0.00 | 89 | 1014.9 |
| 20260507070058 | 43 | 0 | 0.0 | 0.0 | 0.00 | 0.13 | 0.00 | 89 | 1014.6 |
| 20260507065551 | 43 | 0 | 0.0 | 0.0 | 0.00 | 0.32 | 0.00 | 89 | 1014.6 |
| 20260507065051 | 43 | 0 | 0.0 | 0.0 | 0.00 | 0.32 | 0.00 | 88 | 1014.5 |
| 20260507064610 | 43 | 0 | 0.0 | 0.0 | 0.00 | 0.32 | 0.00 | 88 | 1014.9 |
| 20260507064050 | 43 | 0 | 0.0 | 0.0 | 0.00 | 0.32 | 0.00 | 88 | 1014.9 |
| 20260507063548 | 43 | 0 | 0.0 | 0.0 | 0.00 | 0.32 | 0.00 | 88 | 1015.0 |
| 20260507063106 | 43 | 0 | 0.0 | 0.0 | 0.00 | 0.32 | 0.00 | 88 | 1015.1 |
| 20260507062549 | 43 | 0 | 0.0 | 0.0 | 0.00 | 0.32 | 0.00 | 88 | 1014.9 |
| 20260507062049 | 44 | 0 | 0.0 | 0.0 | 0.00 | 0.32 | 0.00 | 88 | 1014.9 |
| 20260507061555 | 44 | 0 | 0.0 | 0.0 | 0.00 | 0.32 | 0.00 | 88 | 1014.8 |
| 20260507061051 | 44 | 0 | 0.0 | 0.0 | 0.00 | 0.32 | 0.00 | 88 | 1014.7 |
| 20260507060551 | 44 | 0 | 0.0 | 0.0 | 0.00 | 0.32 | 0.00 | 88 | 1014.7 |
| 20260507060059 | 44 | 0 | 0.0 | 0.0 | 0.00 | 0.32 | 0.00 | 88 | 1014.6 |
| 20260507055551 | 45 | 0 | 0.0 | 0.0 | 0.00 | 0.33 | 0.00 | 88 | 1014.5 |
| 20260507055050 | 45 | 0 | 0.0 | 0.0 | 0.00 | 0.33 | 0.00 | 88 | 1014.5 |
| 20260507054553 | 45 | 0 | 0.0 | 0.0 | 0.00 | 0.33 | 0.00 | 88 | 1014.4 |
| 20260507054052 | 45 | 0 | 0.0 | 0.0 | 0.00 | 0.33 | 0.00 | 88 | 1014.5 |
| 20260507053552 | 45 | 0 | 0.0 | 0.0 | 0.00 | 0.33 | 0.00 | 88 | 1014.6 |
| 20260507053052 | 45 | 0 | 0.0 | 0.0 | 0.00 | 0.33 | 0.00 | 88 | 1014.8 |
| 20260507052553 | 45 | 0 | 0.0 | 0.0 | 0.00 | 0.33 | 0.00 | 88 | 1014.8 |
| 20260507052048 | 46 | 0 | 0.0 | 0.0 | 0.00 | 0.33 | 0.00 | 87 | 1014.8 |
| 20260507051554 | 46 | 0 | 0.0 | 0.0 | 0.00 | 0.33 | 0.00 | 88 | 1014.8 |
| 20260507051052 | 46 | 0 | 0.0 | 0.0 | 0.00 | 0.33 | 0.00 | 88 | 1014.8 |
| 20260507050549 | 46 | 0 | 0.0 | 0.0 | 0.00 | 0.33 | 0.00 | 87 | 1014.9 |
| 20260507050059 | 46 | 0 | 0.0 | 0.0 | 0.00 | 0.33 | 0.00 | 87 | 1014.9 |
| 20260507045548 | 46 | 0 | 0.0 | 0.0 | 0.00 | 0.37 | 0.00 | 87 | 1014.9 |
| 20260507045048 | 46 | 0 | 0.0 | 0.0 | 0.00 | 0.37 | 0.00 | 87 | 1015.0 |
| 20260507044551 | 47 | 0 | 0.0 | 0.0 | 0.00 | 0.37 | 0.00 | 87 | 1015.2 |
| 20260507044048 | 47 | 0 | 0.0 | 0.0 | 0.00 | 0.37 | 0.00 | 87 | 1015.2 |
| 20260507043549 | 47 | 0 | 0.0 | 0.0 | 0.00 | 0.37 | 0.00 | 87 | 1015.2 |
| 20260507043053 | 47 | 0 | 0.0 | 0.0 | 0.00 | 0.37 | 0.00 | 86 | 1015.3 |
| 20260507042552 | 47 | 0 | 0.0 | 0.0 | 0.00 | 0.37 | 0.00 | 86 | 1015.4 |
| 20260507042052 | 47 | 0 | 0.0 | 0.0 | 0.00 | 0.37 | 0.00 | 86 | 1015.3 |
| 20260507041558 | 47 | 0 | 0.0 | 0.0 | 0.00 | 0.37 | 0.00 | 85 | 1015.3 |
| 20260507041051 | 48 | 0 | 0.0 | 0.0 | 0.00 | 0.37 | 0.00 | 85 | 1015.3 |
| 20260507040552 | 48 | 0 | 0.0 | 0.0 | 0.00 | 0.37 | 0.00 | 85 | 1015.4 |
| 20260507040107 | 48 | 0 | 0.0 | 0.0 | 0.00 | 0.37 | 0.00 | 85 | 1015.3 |
| 20260507035551 | 48 | 0 | 0.0 | 0.0 | 0.00 | 0.37 | 0.37 | 85 | 1015.2 |
| 20260507035051 | 48 | 0 | 0.0 | 0.0 | 0.00 | 0.37 | 0.37 | 85 | 1015.3 |
| 20260507034612 | 49 | 0 | 0.0 | 0.0 | 0.00 | 0.37 | 0.37 | 85 | 1015.2 |
| 20260507034051 | 49 | 0 | 0.0 | 0.0 | 0.00 | 0.37 | 0.37 | 84 | 1015.3 |
| 20260507033551 | 49 | 0 | 0.0 | 0.0 | 0.00 | 0.37 | 0.37 | 84 | 1015.3 |
| 20260507033106 | 49 | 0 | 0.0 | 0.0 | 0.00 | 0.37 | 0.37 | 84 | 1015.2 |
| 20260507032553 | 50 | 0 | 0.0 | 0.0 | 0.00 | 0.37 | 0.37 | 84 | 1015.0 |
| 20260507032051 | 50 | 0 | 0.0 | 0.0 | 0.00 | 0.37 | 0.37 | 84 | 1015.0 |
| 20260507031556 | 50 | 0 | 0.0 | 0.0 | 0.00 | 0.37 | 0.37 | 84 | 1014.9 |
| 20260507031053 | 50 | 0 | 0.0 | 0.0 | 0.00 | 0.37 | 0.37 | 84 | 1015.0 |
| 20260507030549 | 50 | 0 | 0.0 | 0.0 | 0.00 | 0.37 | 0.37 | 84 | 1015.0 |
| 20260507030051 | 50 | 0 | 0.0 | 0.0 | 0.00 | 0.37 | 0.37 | 84 | 1014.9 |
| 20260507025551 | 51 | 0 | 0.0 | 0.0 | 0.00 | 0.38 | 0.37 | 84 | 1014.9 |
| 20260507025051 | 51 | 0 | 0.0 | 0.0 | 0.00 | 0.38 | 0.37 | 83 | 1015.0 |
| 20260507024600 | 51 | 0 | 0.0 | 0.0 | 0.00 | 0.38 | 0.37 | 83 | 1014.9 |
| 20260507024050 | 51 | 0 | 0.0 | 0.0 | 0.00 | 0.38 | 0.37 | 83 | 1015.0 |
| 20260507023548 | 51 | 0 | 0.0 | 0.0 | 0.00 | 0.38 | 0.37 | 83 | 1014.9 |
| 20260507023052 | 52 | 0 | 0.0 | 0.0 | 0.00 | 0.38 | 0.37 | 83 | 1014.9 |
| 20260507022552 | 52 | 0 | 0.0 | 0.0 | 0.00 | 0.38 | 0.37 | 83 | 1014.7 |
| 20260507022051 | 52 | 0 | 0.0 | 0.0 | 0.00 | 0.38 | 0.37 | 83 | 1014.8 |
| 20260507021601 | 52 | 0 | 0.0 | 0.0 | 0.00 | 0.38 | 0.37 | 83 | 1014.7 |
| 20260507021051 | 52 | 0 | 0.0 | 0.0 | 0.00 | 0.38 | 0.37 | 83 | 1014.6 |
| 20260507020549 | 52 | 0 | 0.0 | 0.0 | 0.00 | 0.38 | 0.37 | 83 | 1014.6 |
| 20260507020054 | 52 | 0 | 0.0 | 0.0 | 0.00 | 0.38 | 0.37 | 83 | 1014.4 |
| 20260507015551 | 53 | 0 | 0.0 | 0.0 | 0.00 | 0.40 | 0.37 | 83 | 1014.5 |
| 20260507015053 | 53 | 0 | 0.0 | 0.0 | 0.00 | 0.40 | 0.37 | 83 | 1014.4 |
| 20260507014555 | 53 | 0 | 0.0 | 0.0 | 0.00 | 0.40 | 0.37 | 83 | 1014.4 |
| 20260507014051 | 53 | 0 | 0.0 | 0.0 | 0.00 | 0.40 | 0.37 | 82 | 1014.7 |
| 20260507013551 | 53 | 0 | 0.0 | 0.0 | 0.00 | 0.40 | 0.37 | 82 | 1014.7 |
| 20260507013114 | 53 | 0 | 0.0 | 0.0 | 0.00 | 0.40 | 0.37 | 82 | 1014.5 |
| 20260507012550 | 53 | 0 | 0.0 | 0.0 | 0.00 | 0.40 | 0.37 | 82 | 1014.5 |
| 20260507012052 | 54 | 0 | 0.0 | 0.0 | 0.00 | 0.40 | 0.37 | 82 | 1014.4 |
| 20260507011553 | 54 | 0 | 0.0 | 0.0 | 0.00 | 0.40 | 0.37 | 81 | 1014.3 |
| 20260507011049 | 54 | 0 | 0.0 | 0.0 | 0.00 | 0.40 | 0.37 | 81 | 1014.2 |
| 20260507010549 | 54 | 0 | 0.0 | 0.0 | 0.00 | 0.40 | 0.37 | 81 | 1014.1 |
| 20260507010056 | 54 | 0 | 0.0 | 0.0 | 0.00 | 0.40 | 0.37 | 81 | 1014.1 |
| 20260507005556 | 54 | 0 | 0.0 | 0.0 | 0.00 | 0.52 | 0.37 | 81 | 1014.1 |
| 20260507005049 | 55 | 0 | 0.0 | 0.0 | 0.00 | 0.52 | 0.37 | 81 | 1014.0 |
| 20260507004556 | 55 | 0 | 0.0 | 0.0 | 0.00 | 0.52 | 0.37 | 81 | 1014.0 |
| 20260507004048 | 55 | 0 | 0.0 | 0.0 | 0.00 | 0.52 | 0.37 | 81 | 1014.0 |
| 20260507003552 | 55 | 0 | 0.0 | 0.0 | 0.00 | 0.52 | 0.37 | 81 | 1014.0 |
| 20260507003057 | 55 | 0 | 0.0 | 0.0 | 0.00 | 0.52 | 0.37 | 81 | 1014.0 |
| 20260507002548 | 56 | 0 | 0.0 | 0.0 | 0.00 | 0.52 | 0.37 | 80 | 1013.9 |
| 20260507002048 | 56 | 0 | 0.0 | 0.0 | 0.00 | 0.52 | 0.37 | 79 | 1013.6 |
| 20260507001610 | 56 | 0 | 0.0 | 0.0 | 0.00 | 0.52 | 0.37 | 78 | 1013.7 |
| 20260507001051 | 56 | 0 | 0.0 | 0.0 | 0.00 | 0.52 | 0.37 | 77 | 1013.7 |
| 20260507000548 | 56 | 0 | 0.0 | 0.0 | 0.00 | 0.52 | 0.37 | 77 | 1013.6 |
| 20260507000054 | 57 | 0 | 0.0 | 0.0 | 0.00 | 0.52 | 0.37 | 76 | 1013.6 |
| 20260506235549 | 57 | 0 | 0.0 | 0.0 | 0.00 | 0.55 | 0.37 | 75 | 1013.5 |
| 20260506235050 | 57 | 0 | 0.0 | 0.0 | 0.00 | 0.55 | 0.37 | 75 | 1013.5 |
| 20260506234601 | 57 | 0 | 0.0 | 0.0 | 0.00 | 0.55 | 0.37 | 75 | 1013.5 |
| 20260506234051 | 58 | 0 | 0.0 | 0.9 | 0.00 | 0.55 | 0.37 | 75 | 1013.5 |
| 20260506233552 | 58 | 0 | 0.0 | 0.9 | 0.00 | 0.55 | 0.37 | 76 | 1013.4 |
| 20260506233057 | 58 | 0 | 0.0 | 0.0 | 0.00 | 0.55 | 0.37 | 75 | 1013.3 |
| 20260506232551 | 59 | 0 | 0.0 | 0.9 | 0.00 | 0.55 | 0.37 | 74 | 1013.6 |
| 20260506232048 | 59 | 0 | 0.0 | 1.7 | 0.00 | 0.55 | 0.37 | 74 | 1013.3 |
| 20260506231556 | 59 | 0 | 0.0 | 1.7 | 0.00 | 0.55 | 0.37 | 73 | 1012.9 |
| 20260506231047 | 59 | 0 | 0.0 | 0.9 | 0.00 | 0.55 | 0.37 | 72 | 1012.8 |
| 20260506230551 | 59 | 0 | 0.0 | 0.9 | 0.00 | 0.55 | 0.37 | 71 | 1012.7 |
| 20260506230059 | 59 | 254 | 0.0 | 3.5 | 0.00 | 0.55 | 0.37 | 70 | 1012.5 |
| 20260506225550 | 59 | 0 | 0.0 | 3.5 | 0.00 | 0.55 | 0.37 | 64 | 1012.8 |
| 20260506225048 | 60 | 254 | 0.9 | 3.5 | 0.00 | 0.55 | 0.37 | 65 | 1013.0 |
| 20260506224606 | 60 | 0 | 0.0 | 6.1 | 0.00 | 0.55 | 0.37 | 65 | 1012.6 |
| 20260506224051 | 60 | 300 | 0.9 | 6.1 | 0.00 | 0.55 | 0.37 | 61 | 1012.9 |
| 20260506223551 | 60 | 0 | 1.7 | 6.1 | 0.00 | 0.55 | 0.37 | 62 | 1013.0 |
| 20260506223059 | 60 | 271 | 0.9 | 2.6 | 0.00 | 0.55 | 0.37 | 65 | 1012.7 |
| 20260506222549 | 60 | 257 | 0.0 | 1.7 | 0.00 | 0.55 | 0.37 | 68 | 1012.5 |
| 20260506222052 | 60 | 0 | 0.0 | 2.6 | 0.00 | 0.55 | 0.37 | 67 | 1012.6 |
| 20260506221601 | 60 | 257 | 0.0 | 2.6 | 0.00 | 0.55 | 0.37 | 66 | 1012.7 |
| 20260506221048 | 60 | 0 | 0.9 | 2.6 | 0.00 | 0.55 | 0.37 | 63 | 1013.1 |
| 20260506220548 | 60 | 267 | 0.0 | 2.6 | 0.00 | 0.55 | 0.37 | 62 | 1013.0 |
| 20260506220106 | 60 | 0 | 0.0 | 3.5 | 0.00 | 0.55 | 0.37 | 64 | 1012.9 |
| 20260506215549 | 60 | 165 | 0.9 | 3.5 | 0.00 | 0.56 | 0.37 | 62 | 1012.8 |
| 20260506215052 | 60 | 223 | 0.9 | 3.5 | 0.00 | 0.56 | 0.37 | 61 | 1013.2 |
| 20260506214555 | 60 | 271 | 1.7 | 6.1 | 0.00 | 0.56 | 0.37 | 62 | 1013.4 |
| 20260506214050 | 60 | 249 | 0.9 | 6.1 | 0.00 | 0.56 | 0.37 | 61 | 1013.2 |
| 20260506213550 | 60 | 265 | 1.7 | 6.1 | 0.00 | 0.56 | 0.37 | 63 | 1013.0 |
| 20260506213059 | 61 | 0 | 0.0 | 2.6 | 0.00 | 0.56 | 0.37 | 63 | 1012.8 |
| 20260506212552 | 61 | 232 | 0.0 | 2.6 | 0.00 | 0.56 | 0.37 | 67 | 1012.8 |
| 20260506212052 | 61 | 121 | 0.0 | 2.6 | 0.00 | 0.56 | 0.37 | 64 | 1012.8 |
| 20260506211557 | 61 | 123 | 0.0 | 2.6 | 0.00 | 0.56 | 0.37 | 64 | 1012.8 |
| 20260506211051 | 61 | 180 | 0.0 | 2.6 | 0.00 | 0.56 | 0.37 | 64 | 1012.7 |
| 20260506210552 | 61 | 167 | 0.9 | 2.6 | 0.00 | 0.56 | 0.37 | 63 | 1012.8 |
| 20260506210055 | 61 | 181 | 0.9 | 5.2 | 0.00 | 0.56 | 0.37 | 61 | 1012.8 |
| 20260506205551 | 61 | 112 | 0.9 | 5.2 | 0.00 | 0.56 | 0.37 | 62 | 1012.7 |
| 20260506205048 | 61 | 284 | 0.0 | 3.5 | 0.00 | 0.56 | 0.37 | 64 | 1012.5 |
| 20260506204554 | 61 | 219 | 0.0 | 3.5 | 0.00 | 0.56 | 0.37 | 64 | 1012.4 |
| 20260506204049 | 61 | 294 | 0.9 | 3.5 | 0.00 | 0.56 | 0.37 | 64 | 1012.4 |
| 20260506203549 | 61 | 0 | 0.9 | 5.2 | 0.00 | 0.56 | 0.37 | 61 | 1012.6 |
| 20260506203100 | 61 | 281 | 1.7 | 5.2 | 0.00 | 0.56 | 0.37 | 61 | 1012.9 |
| 20260506202550 | 61 | 278 | 0.9 | 3.5 | 0.00 | 0.56 | 0.37 | 64 | 1013.0 |
| 20260506202053 | 62 | 267 | 0.9 | 5.2 | 0.00 | 0.56 | 0.37 | 64 | 1013.0 |
| 20260506201553 | 62 | 0 | 0.9 | 5.2 | 0.00 | 0.56 | 0.37 | 63 | 1013.0 |
| 20260506201051 | 62 | 275 | 0.9 | 6.1 | 0.00 | 0.56 | 0.37 | 63 | 1013.0 |
| 20260506200556 | 62 | 0 | 0.9 | 7.0 | 0.00 | 0.56 | 0.37 | 63 | 1012.9 |
| 20260506200052 | 62 | 257 | 2.6 | 7.0 | 0.00 | 0.56 | 0.37 | 62 | 1013.0 |
| 20260506195551 | 62 | 270 | 0.9 | 7.0 | 0.00 | 0.56 | 0.37 | 62 | 1013.0 |
| 20260506195051 | 62 | 0 | 1.7 | 7.0 | 0.00 | 0.56 | 0.37 | 64 | 1012.8 |
| 20260506194558 | 62 | 261 | 2.6 | 6.1 | 0.00 | 0.56 | 0.37 | 63 | 1012.8 |
| 20260506194052 | 62 | 67 | 0.9 | 7.0 | 0.00 | 0.56 | 0.37 | 66 | 1012.7 |
| 20260506193551 | 61 | 234 | 2.6 | 7.0 | 0.00 | 0.56 | 0.37 | 65 | 1012.8 |
| 20260506193059 | 61 | 232 | 1.7 | 7.0 | 0.00 | 0.56 | 0.37 | 65 | 1012.8 |
| 20260506192551 | 61 | 248 | 0.9 | 4.3 | 0.00 | 0.56 | 0.37 | 66 | 1012.9 |
| 20260506192051 | 61 | 0 | 1.7 | 3.5 | 0.00 | 0.56 | 0.37 | 65 | 1012.8 |
| 20260506191555 | 61 | 115 | 0.9 | 4.3 | 0.00 | 0.56 | 0.37 | 66 | 1013.0 |
| 20260506191048 | 61 | 243 | 0.9 | 4.3 | 0.00 | 0.56 | 0.37 | 66 | 1012.9 |
| 20260506190552 | 61 | 273 | 0.9 | 5.2 | 0.00 | 0.56 | 0.37 | 65 | 1012.9 |
| 20260506190053 | 60 | 0 | 0.9 | 5.2 | 0.00 | 0.56 | 0.37 | 66 | 1012.8 |
| 20260506185551 | 60 | 96 | 1.7 | 5.2 | 0.00 | 0.56 | 0.37 | 66 | 1012.6 |
| 20260506185051 | 60 | 271 | 0.0 | 3.5 | 0.00 | 0.56 | 0.37 | 68 | 1012.7 |
| 20260506184557 | 60 | 0 | 0.0 | 3.5 | 0.00 | 0.56 | 0.37 | 72 | 1012.9 |
| 20260506184051 | 59 | 237 | 1.7 | 7.0 | 0.00 | 0.56 | 0.37 | 71 | 1012.9 |
| 20260506183551 | 59 | 172 | 1.7 | 7.0 | 0.00 | 0.56 | 0.37 | 69 | 1012.8 |
| 20260506183101 | 59 | 107 | 2.6 | 7.0 | 0.00 | 0.56 | 0.37 | 70 | 1012.8 |
| 20260506182552 | 59 | 171 | 0.9 | 6.1 | 0.00 | 0.56 | 0.37 | 70 | 1012.6 |
| 20260506182048 | 59 | 126 | 1.7 | 6.1 | 0.00 | 0.56 | 0.37 | 70 | 1012.6 |
| 20260506181620 | 59 | 96 | 1.7 | 6.1 | 0.00 | 0.56 | 0.37 | 73 | 1012.5 |
| 20260506181054 | 59 | 109 | 1.7 | 6.1 | 0.00 | 0.56 | 0.37 | 71 | 1012.4 |
| 20260506180554 | 59 | 52 | 1.7 | 7.0 | 0.00 | 0.56 | 0.37 | 72 | 1012.7 |
| 20260506180052 | 59 | 279 | 2.6 | 7.0 | 0.00 | 0.56 | 0.37 | 69 | 1012.9 |
| 20260506175551 | 59 | 255 | 2.6 | 7.0 | 0.00 | 0.56 | 0.37 | 74 | 1012.9 |
| 20260506175051 | 58 | 244 | 2.6 | 7.0 | 0.00 | 0.56 | 0.37 | 74 | 1013.0 |
| 20260506174556 | 58 | 222 | 0.9 | 6.1 | 0.00 | 0.56 | 0.37 | 75 | 1012.9 |
| 20260506174051 | 58 | 293 | 2.6 | 6.1 | 0.00 | 0.56 | 0.37 | 76 | 1012.8 |
| 20260506173552 | 57 | 227 | 1.7 | 5.2 | 0.00 | 0.56 | 0.37 | 76 | 1013.0 |
| 20260506173122 | 57 | 190 | 1.7 | 4.3 | 0.00 | 0.56 | 0.37 | 76 | 1013.0 |
| 20260506172551 | 57 | 207 | 1.7 | 6.1 | 0.00 | 0.56 | 0.37 | 74 | 1013.0 |
| 20260506172048 | 57 | 84 | 0.9 | 6.1 | 0.00 | 0.56 | 0.37 | 77 | 1013.0 |
| 20260506171601 | 57 | 310 | 1.7 | 6.1 | 0.00 | 0.56 | 0.37 | 78 | 1013.2 |
| 20260506171050 | 57 | 91 | 0.9 | 6.1 | 0.00 | 0.56 | 0.37 | 76 | 1013.0 |
| 20260506170548 | 57 | 263 | 2.6 | 6.1 | 0.00 | 0.56 | 0.37 | 77 | 1013.3 |
| 20260506170104 | 57 | 240 | 0.9 | 5.2 | 0.00 | 0.56 | 0.37 | 77 | 1013.4 |
| 20260506165553 | 57 | 0 | 1.7 | 6.1 | 0.00 | 0.56 | 0.37 | 75 | 1013.3 |
| 20260506165048 | 58 | 309 | 2.6 | 6.1 | 0.00 | 0.56 | 0.37 | 75 | 1013.3 |
| 20260506164553 | 57 | 340 | 0.9 | 6.1 | 0.00 | 0.56 | 0.37 | 79 | 1013.1 |
| 20260506164050 | 56 | 119 | 1.7 | 6.1 | 0.00 | 0.56 | 0.37 | 78 | 1013.1 |
| 20260506163551 | 56 | 273 | 1.7 | 6.1 | 0.00 | 0.56 | 0.37 | 78 | 1013.1 |
| 20260506163055 | 56 | 246 | 2.6 | 6.1 | 0.00 | 0.56 | 0.37 | 79 | 1012.9 |
| 20260506162548 | 56 | 223 | 1.7 | 5.2 | 0.00 | 0.56 | 0.37 | 79 | 1013.0 |
| 20260506162051 | 56 | 11 | 1.7 | 5.2 | 0.00 | 0.56 | 0.37 | 80 | 1012.9 |
| 20260506161555 | 56 | 204 | 0.9 | 6.1 | 0.00 | 0.56 | 0.37 | 81 | 1013.3 |
| 20260506161048 | 56 | 279 | 1.7 | 7.0 | 0.00 | 0.56 | 0.37 | 82 | 1013.1 |
| 20260506160548 | 55 | 235 | 2.6 | 7.0 | 0.00 | 0.56 | 0.37 | 82 | 1013.1 |
| 20260506160110 | 55 | 261 | 1.7 | 6.1 | 0.00 | 0.56 | 0.37 | 82 | 1013.1 |
| 20260506155548 | 55 | 186 | 1.7 | 6.1 | 0.00 | 0.56 | 0.37 | 83 | 1012.9 |
| 20260506155048 | 55 | 219 | 0.0 | 6.1 | 0.00 | 0.56 | 0.37 | 84 | 1012.9 |
| 20260506154559 | 54 | 110 | 0.0 | 6.1 | 0.00 | 0.56 | 0.37 | 84 | 1012.9 |
| 20260506154048 | 54 | 88 | 0.9 | 5.2 | 0.00 | 0.56 | 0.37 | 85 | 1013.0 |
| 20260506153548 | 54 | 82 | 1.7 | 3.5 | 0.00 | 0.56 | 0.37 | 86 | 1013.0 |
| 20260506153055 | 54 | 170 | 0.9 | 3.5 | 0.00 | 0.56 | 0.37 | 86 | 1012.7 |
| 20260506152610 | 53 | 19 | 0.9 | 6.1 | 0.00 | 0.56 | 0.37 | 87 | 1012.6 |
| 20260506152052 | 53 | 281 | 0.9 | 6.1 | 0.00 | 0.56 | 0.37 | 88 | 1012.7 |
| 20260506151557 | 53 | 275 | 2.6 | 6.1 | 0.00 | 0.56 | 0.37 | 89 | 1012.8 |
| 20260506151051 | 52 | 254 | 0.9 | 5.2 | 0.00 | 0.56 | 0.37 | 89 | 1012.6 |
| 20260506150548 | 52 | 0 | 0.9 | 5.2 | 0.00 | 0.56 | 0.37 | 90 | 1012.7 |
| 20260506150057 | 52 | 86 | 0.9 | 3.5 | 0.00 | 0.56 | 0.37 | 91 | 1012.5 |
| 20260506145552 | 51 | 132 | 0.9 | 3.5 | 0.00 | 0.56 | 0.37 | 90 | 1012.4 |
| 20260506145048 | 51 | 299 | 1.7 | 3.5 | 0.00 | 0.56 | 0.37 | 91 | 1012.4 |
| 20260506144554 | 51 | 112 | 0.9 | 3.5 | 0.00 | 0.56 | 0.37 | 91 | 1012.3 |
| 20260506144051 | 51 | 74 | 0.0 | 5.2 | 0.00 | 0.56 | 0.37 | 92 | 1012.3 |
| 20260506143551 | 50 | 72 | 1.7 | 5.2 | 0.00 | 0.56 | 0.37 | 92 | 1012.4 |
| 20260506143057 | 50 | 275 | 0.0 | 5.2 | 0.00 | 0.56 | 0.37 | 92 | 1012.2 |
| 20260506142550 | 50 | 346 | 0.9 | 5.2 | 0.00 | 0.56 | 0.37 | 92 | 1012.2 |
| 20260506142050 | 49 | 306 | 0.0 | 1.7 | 0.00 | 0.56 | 0.37 | 92 | 1012.0 |
| 20260506141554 | 49 | 84 | 0.0 | 3.5 | 0.00 | 0.56 | 0.37 | 92 | 1011.9 |
| 20260506141052 | 49 | 0 | 0.9 | 3.5 | 0.00 | 0.56 | 0.37 | 92 | 1011.9 |
| 20260506140551 | 49 | 189 | 0.9 | 2.6 | 0.00 | 0.56 | 0.37 | 92 | 1012.0 |
| 20260506140056 | 49 | 0 | 0.0 | 2.6 | 0.00 | 0.56 | 0.37 | 92 | 1012.0 |
| 20260506135551 | 49 | 105 | 0.9 | 3.5 | 0.00 | 0.56 | 0.37 | 92 | 1011.8 |
| 20260506135048 | 48 | 146 | 0.9 | 3.5 | 0.00 | 0.56 | 0.37 | 92 | 1011.6 |
| 20260506134559 | 48 | 0 | 0.9 | 3.5 | 0.00 | 0.56 | 0.37 | 92 | 1011.6 |
| 20260506134051 | 48 | 0 | 0.0 | 1.7 | 0.00 | 0.56 | 0.37 | 92 | 1011.5 |
| 20260506133549 | 48 | 0 | 0.0 | 2.6 | 0.00 | 0.56 | 0.37 | 92 | 1011.5 |
| 20260506133111 | 48 | 355 | 0.0 | 3.5 | 0.00 | 0.56 | 0.37 | 92 | 1011.5 |
| 20260506132551 | 48 | 116 | 0.0 | 6.1 | 0.00 | 0.56 | 0.37 | 92 | 1011.6 |
| 20260506132048 | 48 | 234 | 0.9 | 6.1 | 0.00 | 0.56 | 0.37 | 92 | 1011.6 |
| 20260506131602 | 48 | 289 | 0.9 | 6.1 | 0.00 | 0.56 | 0.37 | 92 | 1011.6 |
| 20260506131048 | 48 | 219 | 0.9 | 6.1 | 0.00 | 0.56 | 0.37 | 92 | 1011.5 |
| 20260506130548 | 48 | 0 | 2.6 | 6.1 | 0.00 | 0.56 | 0.37 | 92 | 1011.7 |
| 20260506130056 | 48 | 0 | 0.9 | 7.0 | 0.00 | 0.56 | 0.37 | 92 | 1011.5 |
| 20260506125550 | 48 | 236 | 3.5 | 7.0 | 0.00 | 0.56 | 0.37 | 92 | 1011.4 |
| 20260506125047 | 48 | 53 | 1.7 | 5.2 | 0.00 | 0.56 | 0.37 | 92 | 1011.1 |
| 20260506124558 | 48 | 282 | 0.9 | 5.2 | 0.00 | 0.56 | 0.37 | 92 | 1011.1 |
| 20260506124051 | 48 | 248 | 0.9 | 7.0 | 0.00 | 0.56 | 0.37 | 93 | 1010.9 |
| 20260506123552 | 48 | 0 | 1.7 | 7.0 | 0.00 | 0.56 | 0.37 | 93 | 1010.7 |
| 20260506123054 | 48 | 323 | 1.7 | 5.2 | 0.00 | 0.56 | 0.37 | 93 | 1010.8 |
| 20260506122552 | 47 | 234 | 0.9 | 4.3 | 0.00 | 0.56 | 0.37 | 92 | 1010.7 |
| 20260506122048 | 47 | 227 | 1.7 | 5.2 | 0.00 | 0.56 | 0.37 | 92 | 1010.6 |
| 20260506121609 | 47 | 282 | 1.7 | 5.2 | 0.00 | 0.56 | 0.37 | 92 | 1010.7 |
| 20260506121048 | 47 | 0 | 0.0 | 5.2 | 0.00 | 0.56 | 0.37 | 92 | 1010.8 |
| 20260506120551 | 47 | 0 | 0.9 | 5.2 | 0.00 | 0.56 | 0.37 | 92 | 1010.9 |
| 20260506120100 | 47 | 295 | 0.9 | 6.1 | 0.00 | 0.56 | 0.37 | 92 | 1010.7 |
| 20260506115549 | 47 | 307 | 2.6 | 6.1 | 0.00 | 0.56 | 0.37 | 92 | 1010.6 |
| 20260506115048 | 47 | 245 | 0.9 | 2.6 | 0.00 | 0.56 | 0.37 | 92 | 1010.6 |
| 20260506114556 | 47 | 245 | 0.9 | 3.5 | 0.00 | 0.56 | 0.37 | 92 | 1010.4 |